Weather History for Orlando International, FL

Change the Weather History Date:

Wednesday, February 13, 2013

  Actual Average Record
Temperature  
Mean Temperature 77 °F 63 °F  
Max Temperature 89 °F 74 °F 89 °F (2013)
Min Temperature 64 °F 52 °F 22 °F (1899)
Degree Days  
Heating Degree Days 0 4  
Month to date heating degree days 41 63  
Since 1 July heating degree days 263 447  
Cooling Degree Days 12 2  
Month to date cooling degree days 45 26  
Year to date cooling degree days 146 71  
Growing Degree Days 26 (Base 50)    
Moisture  
Dew Point 66 °F    
Average Humidity 72    
Maximum Humidity 97    
Minimum Humidity 46    
Precipitation  
Precipitation 0.22 in 0.09 in 3.26 in (1947)
Month to date precipitation 0.22 1.08  
Year to date precipitation 0.46 3.43  
Sea Level Pressure  
Sea Level Pressure 29.93 in    
Wind  
Wind Speed 12 mph (WSW)    
Max Wind Speed 25 mph    
Max Gust Speed 33 mph    
Visibility 9 miles    
Events Rain    
T = Trace of Precipitation, MM = Missing Value Source: NWS Daily Summary

Daily Weather History Graph

Daily Weather History Graph

Search for Another Location

Airport:

Trip Planner

Search our weather history database for the weather conditions in past years. The results will help you decide how hot, cold, wet, or windy it might be!

Date:

Astronomy

Feb. 13, 2013 Rise Set
Actual Time 7:04 AM EST 6:14 PM EST
Civil Twilight 6:40 AM EST 6:38 PM EST
Nautical Twilight 6:12 AM EST 7:06 PM EST
Astronomical Twilight 5:45 AM EST 7:33 PM EST
Moon 8:56 AM EST (2/13) 9:50 PM EST (2/13)
Length of Visible Light 11h 58m
Length of Day
11h 09m
Waxing Crescent, 13% of the Moon is Illuminated
Feb 13
Waxing Crescent
Feb 17
First Quarter
Feb 25
Full
Mar 4
Last Quarter
Mar 11
New

Hourly Weather History & Observations

Time (EST) Temp. Heat Index Dew Point Humidity Pressure Visibility Wind Dir Wind Speed Gust Speed Precip Events Conditions
12:53 AM 69.1 °F - 66.9 °F 93% 29.97 in 10.0 mi SSW 8.1 mph - N/A   Partly Cloudy
1:53 AM 69.1 °F - 68.0 °F 96% 29.96 in 10.0 mi SSW 9.2 mph - N/A   Scattered Clouds
2:35 AM 69.8 °F - 68.0 °F 94% 29.96 in 10.0 mi SSW 9.2 mph - N/A   Mostly Cloudy
2:53 AM 69.1 °F - 68.0 °F 96% 29.94 in 9.0 mi SSW 9.2 mph - N/A   Mostly Cloudy
3:53 AM 69.1 °F - 66.9 °F 93% 29.93 in 10.0 mi SSW 10.4 mph - N/A   Mostly Cloudy
4:53 AM 69.1 °F - 66.9 °F 93% 29.93 in 8.0 mi SSW 12.7 mph - N/A   Mostly Cloudy
5:53 AM 69.1 °F - 66.9 °F 93% 29.94 in 9.0 mi SSW 10.4 mph - N/A   Mostly Cloudy
6:53 AM 69.1 °F - 66.9 °F 93% 29.94 in 8.0 mi SSW 11.5 mph - N/A   Overcast
7:53 AM 68.0 °F - 66.0 °F 93% 29.95 in 8.0 mi South 11.5 mph - N/A   Mostly Cloudy
8:53 AM 70.0 °F - 66.9 °F 90% 29.96 in 10.0 mi SSW 13.8 mph 20.7 mph N/A   Overcast
9:39 AM 73.4 °F - 66.2 °F 78% 29.97 in 10.0 mi South 13.8 mph - N/A   Overcast
9:53 AM 73.0 °F - 68.0 °F 84% 29.97 in 10.0 mi SSW 10.4 mph - N/A   Overcast
10:29 AM 77.0 °F - 68.0 °F 74% 29.97 in 10.0 mi SSW 16.1 mph - N/A   Mostly Cloudy
10:47 AM 77.0 °F - 68.0 °F 74% 29.96 in 10.0 mi SSW 20.7 mph 26.5 mph N/A   Scattered Clouds
10:53 AM 78.1 °F - 69.1 °F 74% 29.95 in 10.0 mi South 18.4 mph 26.5 mph N/A   Scattered Clouds
11:53 AM 82.0 °F 84.1 °F 66.0 °F 58% 29.93 in 10.0 mi SW 15.0 mph - N/A   Scattered Clouds
12:53 PM 86.0 °F 87.3 °F 64.0 °F 48% 29.89 in 10.0 mi SSW 19.6 mph 31.1 mph N/A   Mostly Cloudy
1:53 PM 88.0 °F 89.3 °F 64.0 °F 45% 29.86 in 10.0 mi SW 17.3 mph 25.3 mph N/A   Mostly Cloudy
2:53 PM 84.9 °F 86.1 °F 64.0 °F 49% 29.84 in 10.0 mi SSW 18.4 mph 27.6 mph N/A   Mostly Cloudy
3:53 PM 84.9 °F 86.1 °F 64.0 °F 49% 29.83 in 10.0 mi SW 19.6 mph 33.4 mph N/A   Mostly Cloudy
4:53 PM 82.9 °F 84.6 °F 64.9 °F 54% 29.85 in 10.0 mi SW 19.6 mph 29.9 mph N/A   Mostly Cloudy
5:53 PM 79.0 °F - 66.9 °F 66% 29.86 in 10.0 mi West 15.0 mph 19.6 mph 0.00 in   Mostly Cloudy
6:46 PM 71.6 °F - 68.0 °F 88% 29.89 in 6.0 mi West 15.0 mph 28.8 mph 0.02 in Rain Light Rain
6:53 PM 71.1 °F - 68.0 °F 90% 29.89 in 8.0 mi WNW 11.5 mph 26.5 mph 0.05 in Rain Light Rain
7:02 PM 69.8 °F - 68.0 °F 94% 29.90 in 8.0 mi WNW 9.2 mph 19.6 mph 0.00 in Rain Light Rain
7:04 PM 69.8 °F - 69.8 °F 100% 29.89 in 6.0 mi NW 5.8 mph - 0.00 in Rain Heavy Rain
7:15 PM 69.8 °F - 68.0 °F 94% 29.91 in 10.0 mi West 9.2 mph - 0.02 in Rain Light Rain
7:22 PM 69.8 °F - 68.0 °F 94% 29.91 in 10.0 mi West 10.4 mph - 0.02 in   Overcast
7:53 PM 66.9 °F - 64.9 °F 93% 29.91 in 6.0 mi NNW 11.5 mph 25.3 mph 0.06 in Rain Light Rain
8:33 PM 64.4 °F - 64.4 °F 100% 29.96 in 10.0 mi NNW 4.6 mph - 0.11 in   Overcast
8:53 PM 66.0 °F - 64.0 °F 93% 29.95 in 10.0 mi NW 4.6 mph - 0.11 in   Mostly Cloudy
9:53 PM 64.9 °F - 57.9 °F 78% 29.98 in 10.0 mi NNW 9.2 mph - N/A   Mostly Cloudy
10:53 PM 64.0 °F - 57.0 °F 78% 29.98 in 10.0 mi NNW 4.6 mph - 0.00 in Rain Light Rain
11:53 PM 64.9 °F - 57.9 °F 78% 29.99 in 10.0 mi West 4.6 mph - 0.00 in   Mostly Cloudy